Content
SEND FEEDBACK

Daily
Averages
Monthly
Summary
United States of America

DURHAM, CALIFORNIA


Home > North America > United States > California
Elevation: 193 feet     Latitude: 39 42N     Longitude: 121 49W

WEATHER
 
SELECT A DAY
Number of Records: 142,087;   Date Range: 1/1/95 - 9/13/14
 
SHARE

PRINT THIS DATA

[ ← Previous Day ]
WEATHER ALMANAC - FEBRUARY 13, 2013
[ Next Day → ]
[ °C ]   °F
Weather ElementAverageHighLow
Temperature46.7 °F68 °F (3:50 pm)33.8 °F (5:15 am)
Dewpoint37.3 °F44.6 °F (4:47 pm)32 °F (4:55 am)
Humidity72.1 %93 % (3:35 am)33 % (3:50 pm)
Barometer30.29 in30.35 in (7:58 am)30.20 in (4:47 pm)
Wind Speed3.2 mph11.5 mph (4:47 pm)
Weather ElementAverage
Visibility26 mi
Wind DirectionENE (63.1 °)

Weather ElementTotal
Precipitation---
Heating Degree Days14.1 (Base 65)
Growing Degree Days0.9 (Base 50)
Averaged from 48 records on February 13, 2013
WEATHER CONDITIONS BREAKOUT
WIND DIRECTION BREAKOUT
WEATHER BY HOUR - FEBRUARY 13, 2013
[ °C ]   °F
Local TimeTemperatureDewpointHumidityBarometerVisibilityWind DirectionWind SpeedGust SpeedPrecipitationEventsConditions
12:35 AM39.2 °F35.6 °F87 %30.34 in10.0 miCalmClear
12:55 AM41.0 °F35.6 °F81 %30.34 in10.0 miCalmClear
1:15 AM39.2 °F35.6 °F87 %30.34 in10.0 miCalmClear
1:35 AM39.2 °F35.6 °F87 %30.34 in10.0 miCalmClear
1:55 AM39.2 °F35.6 °F87 %30.34 in10.0 miCalmClear
2:15 AM39.2 °F35.6 °F87 %30.34 in10.0 miCalmClear
2:35 AM41.0 °F35.6 °F81 %30.33 in10.0 miCalmClear
2:55 AM39.2 °F35.6 °F87 %30.33 in10.0 miCalmClear
3:15 AM39.2 °F35.6 °F87 %30.32 in10.0 miCalmClear
3:35 AM35.6 °F33.8 °F93 %30.33 in10.0 miCalmClear
3:55 AM37.4 °F35.6 °F93 %30.33 in10.0 miCalmClear
4:15 AM39.2 °F35.6 °F87 %30.33 in10.0 miCalmClear
4:35 AM37.4 °F33.8 °F87 %30.33 in10.0 miSE (130°)3.5 mphClear
4:55 AM35.6 °F32.0 °F87 %30.33 in10.0 miCalmClear
5:15 AM33.8 °F32.0 °F93 %30.33 in10.0 miCalmClear
5:35 AM37.4 °F32.0 °F81 %30.33 in10.0 miCalmClear
5:55 AM37.4 °F32.0 °F81 %30.33 in10.0 miENE (60°)5.8 mphClear
6:15 AM39.2 °F33.8 °F81 %30.33 in10.0 miCalmClear
6:35 AM33.8 °F32.0 °F93 %30.33 in10.0 miCalmClear
6:50 AM35.6 °F32.0 °F87 %30.34 in10.0 miNW (310°)5.8 mphClear
7:58 AM42.8 °F33.8 °F70 %30.35 in80.0 miCalmClear
8:55 AM44.6 °F37.4 °F76 %30.35 in80.0 miCalmPartly Cloudy
9:55 AM50.0 °F39.2 °F66 %30.34 in80.0 miCalmPartly Cloudy
10:55 AM53.6 °F39.2 °F58 %30.34 in80.0 miCalmPartly Cloudy
11:50 AM55.4 °F37.4 °F51 %30.31 in80.0 miWest (270°)5.8 mphClear
12:58 PM59.0 °F37.4 °F45 %30.27 in80.0 miNW (310°)9.2 mphPartly Cloudy
1:50 PM62.6 °F37.4 °F39 %30.25 in80.0 miWest (270°)6.9 mphPartly Cloudy
2:47 PM66.2 °F37.4 °F35 %30.22 in80.0 miWNW (300°)8.1 mphPartly Cloudy
3:50 PM68.0 °F37.4 °F33 %30.21 in80.0 miWest (270°)5.8 mphPartly Cloudy
4:47 PM64.4 °F44.6 °F49 %30.20 in80.0 miSE (130°)11.5 mphPartly Cloudy
5:47 PM57.2 °F44.6 °F63 %30.21 in80.0 miSE (130°)9.2 mphPartly Cloudy
6:47 PM55.4 °F42.8 °F63 %30.22 in10.0 miESE (110°)5.8 mphPartly Cloudy
6:55 PM55.4 °F42.8 °F63 %30.22 in10.0 miCalmClear
7:15 PM55.4 °F42.8 °F63 %30.23 in10.0 miSE (130°)5.8 mphClear
7:35 PM53.6 °F41.0 °F62 %30.23 in10.0 miESE (110°)4.6 mphClear
7:55 PM51.8 °F41.0 °F67 %30.23 in10.0 miCalmClear
8:15 PM51.8 °F39.2 °F62 %30.23 in10.0 miESE (110°)3.5 mphClear
8:35 PM51.8 °F39.2 °F62 %30.24 in10.0 miCalmClear
8:55 PM50.0 °F39.2 °F66 %30.25 in10.0 miCalmClear
9:15 PM50.0 °F39.2 °F66 %30.25 in10.0 miCalmClear
9:35 PM48.2 °F39.2 °F71 %30.26 in10.0 miNE (50°)6.9 mphClear
9:55 PM48.2 °F39.2 °F71 %30.26 in10.0 miNE (40°)8.1 mphClear
10:15 PM48.2 °F39.2 °F71 %30.26 in10.0 miNE (50°)6.9 mphClear
10:35 PM48.2 °F39.2 °F71 %30.26 in10.0 miNE (50°)9.2 mphClear
10:55 PM48.2 °F39.2 °F71 %30.26 in10.0 miNE (50°)8.1 mphClear
11:15 PM48.2 °F39.2 °F71 %30.26 in10.0 miENE (60°)6.9 mphClear
11:35 PM48.2 °F39.2 °F71 %30.26 in10.0 miNE (50°)9.2 mphClear
11:55 PM48.2 °F39.2 °F71 %30.27 in10.0 miNE (40°)6.9 mphClear
Hourly data recorded from KCIC, located miles away from Durham, California







STORIES FROM OUR PARTNERS